Weather History for Toronto City ON, Ontario

Change the Weather History Date:

Monday, February 3, 2014

  Actual Average Record
Temperature  
Mean Temperature 22 °F -  
Max Temperature 27 °F - - ()
Min Temperature 16 °F - - ()
Degree Days  
Heating Degree Days 43    
Moisture  
Dew Point 12 °F    
Average Humidity 66    
Maximum Humidity 81    
Minimum Humidity 38    
Precipitation  
Precipitation 0.01 in - - ()
Sea Level Pressure  
Sea Level Pressure 30.32 in    
Wind  
Wind Speed - ()    
Max Wind Speed -    
Max Gust Speed -    
T = Trace of Precipitation, MM = Missing Value Source: Averaged Metar Reports

Daily Weather History Graph

Daily Weather History Graph

Search for Another Location

Airport:

Trip Planner

Search our weather history database for the weather conditions in past years. The results will help you decide how hot, cold, wet, or windy it might be!

Date:

Astronomy

Feb. 03, 2014 Rise Set
Actual Time 7:31 AM EST 5:31 PM EST
Civil Twilight 7:01 AM EST 6:01 PM EST
Nautical Twilight 6:27 AM EST 6:36 PM EST
Astronomical Twilight 5:53 AM EST 7:09 PM EST
Moon 9:23 AM EST (2/3) 10:30 PM EST (2/3)
Length of Visible Light 11h 00m
Length of Day
9h 59m
Waxing Crescent, 19% of the Moon is Illuminated
Feb 3
Waxing Crescent
Feb 6
First Quarter
Feb 14
Full
Feb 22
Last Quarter
Mar 1
New

Hourly Weather History & Observations

Time (EST) Temp. Dew Point Humidity Pressure Visibility Wind Dir Wind Speed Gust Speed Precip Events Conditions
12:00 AM 21.4 °F 15.4 °F 78% 30.26 in - North - - N/A   Unknown
1:00 AM 21 °F 15 °F 70% 30.27 in - Calm Calm - -  
1:00 AM 21.0 °F 15.3 °F 78% 30.27 in - North - - N/A   Unknown
2:00 AM 21.0 °F 14.5 °F 76% 30.26 in - North - - N/A   Unknown
3:00 AM 22.1 °F 14.0 °F 71% 30.28 in - North - - N/A   Unknown
4:00 AM 19.8 °F 13.5 °F 77% 30.28 in - North - - N/A   Unknown
5:00 AM 19.6 °F 14.2 °F 80% 30.28 in - North - - N/A   Unknown
6:00 AM 18.9 °F 13.8 °F 81% 30.29 in - North - - N/A   Unknown
7:00 AM 18 °F 11 °F 66% 30.28 in - Calm Calm - -  
7:00 AM 18.0 °F 11.5 °F 76% 30.28 in - North - - N/A   Unknown
8:00 AM 17.6 °F 10.0 °F 72% 30.31 in - North - - N/A   Unknown
9:00 AM 17.8 °F 11.3 °F 76% 30.33 in - North - - N/A   Unknown
10:00 AM 21.0 °F 11.3 °F 66% 30.35 in - North - - 0.01 in   Unknown
11:00 AM 23.9 °F 10.6 °F 57% 30.34 in - North - - N/A   Unknown
12:00 PM 25.2 °F 9.9 °F 52% 30.34 in - North - - N/A   Unknown
1:00 PM 26 °F 11 °F 38% 30.33 in - Calm Calm - -  
1:00 PM 25.5 °F 10.8 °F 54% 30.33 in - North - - N/A   Unknown
2:00 PM 26.1 °F 11.5 °F 54% 30.31 in - North - - N/A   Unknown
3:00 PM 24.4 °F 11.3 °F 57% 30.31 in - North - - N/A   Unknown
4:00 PM 25.3 °F 11.3 °F 55% 30.33 in - North - - N/A   Unknown
5:00 PM 24.8 °F 11.3 °F 57% 30.34 in - North - - N/A   Unknown
6:00 PM 22.8 °F 10.8 °F 60% 30.36 in - North - - N/A   Unknown
7:00 PM 22 °F 10 °F 48% 30.39 in - Calm Calm - -  
7:00 PM 21.7 °F 10.4 °F 62% 30.39 in - North - - N/A   Unknown
8:00 PM 20.3 °F 10.0 °F 65% 30.39 in - North - - N/A   Unknown
9:00 PM 18.9 °F 9.7 °F 67% 30.39 in - North - - N/A   Unknown
10:00 PM 18.0 °F 9.7 °F 70% 30.39 in - North - - N/A   Unknown
11:00 PM 16.7 °F 9.3 °F 73% 30.41 in - North - - N/A   Unknown